Tracking 30986 objects as of 9-Jul-2025
HD Live streaming from Space Station
objects crossing your sky now

CZ-6A DEB

Track CZ-6A DEB now!
10-day predictions


NORAD ID: 54585
Int'l Code: 2022-151MM
Perigee: 596.1 km
Apogee: 682.0 km
Inclination: 98.7 °
Period: 97.4 minutes
Semi major axis: 7010 km
RCS: Unknown
Launch date: November 11, 2022
Source: People's Republic of China (PRC)
Launch site: Taiyaun Space Center, China (TSC)

Note: This is SATELLITE DEBRIS
Your satellite tracking list
Your tracking list is empty




NASA's NSSDC Master Catalog

Two Line Element Set (TLE):
1 54585U 22151MM  25190.12822481  .00013587  00000-0  17795-2 0  9998
2 54585  98.6503 241.3726 0061250 244.6080 114.8781 14.79182247139977
Source of the keplerian elements: AFSPC